Location: Lane
(33.5226°N, 79.8788°W)
Time: 05:01:07
(UTC+00:00)

Vanguard 2 - Pass Details

Date: 12 October 2022
Orbit: 553 x 2933 km, 32.9° (Epoch: 26 November)

Event Time Altitude Azimuth Distance (km) Brightness Sun altitude
Rises 19:24:28 0° 280° (W) 4,499 11.9 37.4°
Reaches altitude 10° 19:27:01 10° 278° (W) 3,782 11.6 37.0°
Maximum altitude 19:37:32 72° 197° (SSW) 2,289 10.9 35.4°
Drops below altitude 10° 19:53:59 10° 117° (ESE) 5,632 11.8 32.7°
Sets 19:58:42 0° 116° (ESE) 6,753 12.1 31.9°
